sat.trackr.live / text

‹ back to catalog

STARLINK-2464

NORAD 48123 · 2021-027AH

PAYLOAD ACTIVE UNKNOWN

§ Identity

Operator
Country
US
Launch date
2021-04-07
Launch site
AFETR
Launch vehicle
Mass (kg)
RCS (m²)

Purposes: comms

External: N2YO · Heavens-Above · Gunter

§ Orbital elements

Epoch: 2026-09-19T18:31:39.667296Z

Period
94.01 min
Inclination
53.1610°
Eccentricity
0.0001430
Mean motion
15.31691471 rev/d
Perigee alt
469.8 km
Apogee alt
471.7 km
Semi-major
6,848.9 km
B*
1.1211e-5
RAAN
329.3944°
Arg perigee
76.7820°
Mean anomaly
283.3341°
Rev number
30,242

§ Raw data

STARLINK-24641 48123U 21027AH  26262.77198689 -.00000017  00000+0  11211-4 0  99912 48123  53.1610 329.3944 0001430  76.7820 283.3341 15.31691471302421

JSON: /api/v1/satellites/48123 · /tle

For live sub-satellite position, see the globe view (requires WebGL).

§ Visibility from observer

Set your observer location to see the next 7 days of passes ≥ 10°. The values pass through the URL so the page stays shareable.

No JS? Fill the form by hand. The geolocation button needs JavaScript.